Location: Winthrop
(48.4780°N, 120.1850°W)
Time: 01:59:42
(UTC-07:00)

CAS-4A - Pass Details

Date: 21 May 2022
Orbit: 523 x 537 km, 43.0° (Epoch: 27 June)

Event Time Altitude Azimuth Distance (km) Brightness Sun altitude
Rises 21:19:55 0° 238° (WSW) 2,649 ? -5.8°
Reaches altitude 10° 21:22:20 10° 227° (SW) 1,759 ? -6.1°
Maximum altitude 21:25:51 30° 166° (SSE) 959 ? -6.6°
Drops below altitude 10° 21:29:23 10° 104° (ESE) 1,757 ? -7.0°
Enters shadow 21:30:36 - 98° (E) 2,198 ? -7.1°
